Regional Weather Roundup
Issued by NWS

Home | Current Version | Previous Version | Graphics & Text | Print | Product List | Glossary On
Versions: 1 2 3 4 5 6 7 8 9 10 11 12 13 14 15 16 17 18 19 20 21 22 23 24 25 26 27 28 29 30 31 32 33 34 35 36 37 38 39 40 41 42 43 44 45 46 47 48 49 50
000
ASUS43 KBIS 221159
RWRND

NORTH DAKOTA REGIONAL WEATHER ROUNDUP
NATIONAL WEATHER SERVICE BISMARCK ND
700 AM CDT FRI AUG 22 2014

NOTE: "FAIR" INDICATES FEW OR NO CLOUDS BELOW 12,000 FEET WITH NO
SIGNIFICANT WEATHER AND/OR OBSTRUCTIONS TO VISIBILITY.


NDZ001>003-009>011-017-221300-
NORTHWEST NORTH DAKOTA

CITY           SKY/WX    TMP DP  RH WIND       PRES   REMARKS
WILLISTON      CLOUDY    61  56  83 NE9       30.09R
6HR MIN TEMP:  61; 6HR MAX TEMP:  64; 6HR PCP: TRACE;

MINOT          LGT RAIN  60  58  92 N10       30.05S FOG
$$

NDZ018>021-031>035-040>046-221300-
SOUTHWEST NORTH DAKOTA

CITY           SKY/WX    TMP DP  RH WIND       PRES   REMARKS
BISMARCK       CLOUDY    65  64  97 CALM      30.01S
6HR MIN TEMP:  65; 6HR MAX TEMP:  68; 6HR PCP:  0.13;

DICKINSON      CLOUDY    63  61  93 CALM      30.04R
GARRISON         N/A     63  61  93 NE9       30.03S
6HR MIN TEMP:  63; 6HR MAX TEMP:  65;

HETTINGER ARPT CLOUDY    59  57  93 CALM      30.06R
$$

NDZ004>008-012>016-024-026-027-054-221300-
NORTHEAST NORTH DAKOTA

CITY           SKY/WX    TMP DP  RH WIND       PRES   REMARKS
GRAND FORKS    CLOUDY    67  66  97 N8        29.96R
GRND FRKS AFB  CLOUDY    66  66 100 N9        29.98R
DEVILS LAKE    CLOUDY    63  57  82 N8        30.01R
$$

NDZ022-023-025-028>030-036>039-047>053-221300-
SOUTHEAST NORTH DAKOTA

CITY           SKY/WX    TMP DP  RH WIND       PRES   REMARKS
FARGO          FOG       66  66 100 CALM      29.95R VSB 1/4
6HR MIN TEMP:  63; 6HR MAX TEMP:  66;

$$




USA.gov is the U.S. government's official web portal to all federal, state and local government web resources and services.